| time (UTC) | temp F | wind direction | speed knots | gust knots | rain 1hr in | rain 24hr in | rain mn in | humidity % | barometer mb |
| 20260506200053 | 69 | 206 | 5.2 | 11.3 | 0.00 | 0.00 | 0.00 | 73 | 1017.6 |
| 20260506194554 | 70 | 219 | 5.2 | 10.4 | 0.00 | 0.00 | 0.00 | 73 | 1017.8 |
| 20260506193052 | 69 | 196 | 5.2 | 9.6 | 0.00 | 0.00 | 0.00 | 73 | 1017.9 |
| 20260506191551 | 70 | 226 | 5.2 | 8.7 | 0.00 | 0.00 | 0.00 | 72 | 1018.0 |
| 20260506190050 | 69 | 219 | 2.6 | 8.7 | 0.00 | 0.00 | 0.00 | 73 | 1018.2 |
| 20260506184549 | 69 | 165 | 4.3 | 9.6 | 0.00 | 0.00 | 0.00 | 74 | 1018.3 |
| 20260506183048 | 69 | 248 | 4.3 | 8.7 | 0.00 | 0.00 | 0.00 | 72 | 1018.5 |
| 20260506181546 | 69 | 225 | 4.3 | 8.7 | 0.00 | 0.00 | 0.00 | 73 | 1018.5 |
| 20260506180047 | 69 | 227 | 3.5 | 8.7 | 0.00 | 0.00 | 0.00 | 73 | 1018.5 |
| 20260506174547 | 69 | 164 | 3.5 | 8.7 | 0.00 | 0.00 | 0.00 | 73 | 1018.4 |
| 20260506173053 | 68 | 201 | 3.5 | 9.6 | 0.00 | 0.00 | 0.00 | 72 | 1018.4 |
| 20260506171551 | 68 | 175 | 3.5 | 10.4 | 0.00 | 0.00 | 0.00 | 73 | 1018.3 |
| 20260506170043 | 69 | 206 | 3.5 | 7.8 | 0.00 | 0.00 | 0.00 | 71 | 1018.4 |
| 20260506164553 | 69 | 209 | 2.6 | 7.0 | 0.00 | 0.00 | 0.00 | 71 | 1018.3 |
| 20260506163043 | 69 | 217 | 1.7 | 7.0 | 0.00 | 0.00 | 0.00 | 71 | 1018.2 |
| 20260506161540 | 69 | 225 | 1.7 | 7.8 | 0.00 | 0.00 | 0.00 | 71 | 1018.2 |
| 20260506160046 | 68 | 146 | 0.0 | 0.0 | 0.00 | 0.00 | 0.00 | 70 | 1018.3 |
| 20260506154543 | 68 | 137 | 0.0 | 0.0 | 0.00 | 0.00 | 0.00 | 71 | 1018.4 |
| 20260506153035 | 67 | 83 | 0.0 | 0.0 | 0.00 | 0.00 | 0.00 | 72 | 1018.4 |
| 20260506151531 | 66 | 78 | 0.0 | 3.5 | 0.00 | 0.00 | 0.00 | 73 | 1018.4 |
| 20260506150026 | 65 | 83 | 0.0 | 0.0 | 0.00 | 0.00 | 0.00 | 75 | 1018.4 |
| 20260506144527 | 63 | 84 | 0.0 | 0.0 | 0.00 | 0.00 | 0.00 | 77 | 1018.4 |
| 20260506143022 | 60 | 82 | 0.0 | 0.0 | 0.00 | 0.00 | 0.00 | 82 | 1018.3 |
| 20260506141515 | 56 | 84 | 0.0 | 0.0 | 0.00 | 0.00 | 0.00 | 90 | 1018.2 |
| 20260506140015 | 54 | 93 | 0.0 | 0.0 | 0.00 | 0.00 | 0.00 | 91 | 1018.1 |
| 20260506134513 | 53 | 117 | 0.0 | 0.0 | 0.00 | 0.00 | 0.00 | 92 | 1018.1 |
| 20260506133014 | 53 | 136 | 0.0 | 0.0 | 0.00 | 0.00 | 0.00 | 91 | 1017.9 |
| 20260506131516 | 53 | 136 | 0.0 | 0.0 | 0.00 | 0.00 | 0.00 | 91 | 1017.8 |
| 20260506130014 | 53 | 136 | 0.0 | 0.0 | 0.00 | 0.00 | 0.00 | 91 | 1017.6 |
| 20260506124506 | 54 | 136 | 0.0 | 0.0 | 0.00 | 0.00 | 0.00 | 91 | 1017.5 |
| 20260506123006 | 54 | 136 | 0.0 | 0.0 | 0.00 | 0.00 | 0.00 | 91 | 1017.4 |
| 20260506121504 | 54 | 136 | 0.0 | 0.0 | 0.00 | 0.00 | 0.00 | 90 | 1017.2 |
| 20260506120003 | 55 | 136 | 0.0 | 0.0 | 0.00 | 0.00 | 0.00 | 90 | 1017.2 |
| 20260506114503 | 55 | 136 | 0.0 | 0.0 | 0.00 | 0.00 | 0.00 | 90 | 1017.2 |
| 20260506113002 | 55 | 136 | 0.0 | 0.0 | 0.00 | 0.00 | 0.00 | 91 | 1017.1 |
| 20260506111559 | 55 | 137 | 0.0 | 0.0 | 0.00 | 0.00 | 0.00 | 91 | 1017.1 |
| 20260506110101 | 56 | 137 | 0.0 | 0.0 | 0.00 | 0.00 | 0.00 | 90 | 1017.1 |
| 20260506104557 | 56 | 137 | 0.0 | 0.0 | 0.00 | 0.00 | 0.00 | 91 | 1017.2 |
| 20260506103056 | 56 | 137 | 0.0 | 0.0 | 0.00 | 0.00 | 0.00 | 90 | 1017.2 |
| 20260506101554 | 57 | 137 | 0.0 | 0.0 | 0.00 | 0.00 | 0.00 | 90 | 1017.1 |
| 20260506100054 | 57 | 137 | 0.0 | 0.0 | 0.00 | 0.00 | 0.00 | 89 | 1017.0 |
| 20260506094550 | 57 | 233 | 0.0 | 0.0 | 0.00 | 0.03 | 0.00 | 89 | 1017.1 |
| 20260506093052 | 57 | 233 | 0.0 | 0.0 | 0.00 | 0.03 | 0.00 | 88 | 1017.2 |
| 20260506091547 | 58 | 223 | 0.0 | 0.0 | 0.00 | 0.03 | 0.00 | 88 | 1017.2 |
| 20260506090046 | 58 | 223 | 0.0 | 0.0 | 0.00 | 0.03 | 0.00 | 88 | 1017.3 |
| 20260506084545 | 58 | 219 | 0.0 | 0.0 | 0.00 | 0.03 | 0.00 | 88 | 1017.4 |
| 20260506083045 | 59 | 213 | 0.0 | 0.0 | 0.00 | 0.03 | 0.00 | 89 | 1017.5 |
| 20260506081548 | 59 | 213 | 0.0 | 0.0 | 0.00 | 0.03 | 0.00 | 89 | 1017.5 |
| 20260506073040 | 59 | 269 | 0.0 | 2.6 | 0.00 | 0.03 | 0.00 | 88 | 1017.5 |
| 20260506071548 | 59 | 269 | 0.0 | 2.6 | 0.00 | 0.03 | 0.00 | 88 | 1017.5 |
| 20260506061535 | 60 | 259 | 0.0 | 5.2 | 0.00 | 0.03 | 0.03 | 87 | 1017.1 |
| 20260506044530 | 61 | 261 | 2.6 | 7.8 | 0.00 | 0.03 | 0.03 | 84 | 1016.3 |
| 20260506043023 | 61 | 244 | 4.3 | 7.8 | 0.00 | 0.03 | 0.03 | 84 | 1016.2 |
| 20260506041524 | 61 | 284 | 1.7 | 8.7 | 0.00 | 0.03 | 0.03 | 84 | 1016.2 |
| 20260506040020 | 61 | 240 | 5.2 | 9.6 | 0.00 | 0.03 | 0.03 | 83 | 1015.9 |
| 20260506034519 | 61 | 286 | 6.1 | 10.4 | 0.00 | 0.03 | 0.03 | 82 | 1015.6 |
| 20260506033018 | 62 | 281 | 4.3 | 9.6 | 0.00 | 0.03 | 0.03 | 82 | 1015.5 |
| 20260506031518 | 62 | 278 | 3.5 | 10.4 | 0.00 | 0.03 | 0.03 | 81 | 1015.3 |
| 20260506030020 | 62 | 289 | 7.8 | 13.0 | 0.00 | 0.03 | 0.03 | 81 | 1015.1 |
| 20260506024521 | 62 | 275 | 7.0 | 13.9 | 0.00 | 0.03 | 0.03 | 80 | 1014.8 |
| 20260506023016 | 62 | 265 | 7.8 | 13.0 | 0.00 | 0.03 | 0.03 | 80 | 1014.6 |
| 20260506021515 | 63 | 252 | 6.1 | 13.9 | 0.00 | 0.03 | 0.03 | 79 | 1014.4 |
| 20260506020014 | 63 | 277 | 6.1 | 13.0 | 0.00 | 0.03 | 0.03 | 78 | 1014.5 |
| 20260506014514 | 63 | 290 | 7.8 | 13.0 | 0.00 | 0.03 | 0.03 | 77 | 1014.3 |
| 20260506013013 | 64 | 315 | 7.8 | 15.6 | 0.00 | 0.03 | 0.03 | 74 | 1014.1 |
| 20260506011512 | 65 | 286 | 8.7 | 14.8 | 0.00 | 0.03 | 0.03 | 75 | 1014.2 |
| 20260506010012 | 64 | 259 | 6.1 | 15.6 | 0.00 | 0.03 | 0.03 | 75 | 1014.2 |
| 20260506004512 | 65 | 269 | 8.7 | 16.5 | 0.00 | 0.03 | 0.03 | 73 | 1014.1 |
| 20260506003011 | 66 | 275 | 12.2 | 18.2 | 0.00 | 0.03 | 0.03 | 72 | 1013.9 |
| 20260506001510 | 66 | 271 | 8.7 | 17.4 | 0.00 | 0.03 | 0.03 | 74 | 1014.1 |
| 20260506000010 | 66 | 258 | 9.6 | 16.5 | 0.00 | 0.03 | 0.03 | 71 | 1014.1 |
| 20260505234518 | 67 | 271 | 9.6 | 16.5 | 0.00 | 0.03 | 0.03 | 71 | 1014.1 |
| 20260505233015 | 67 | 268 | 11.3 | 16.5 | 0.00 | 0.03 | 0.03 | 69 | 1014.2 |
| 20260505231511 | 66 | 267 | 10.4 | 20.0 | 0.00 | 0.03 | 0.03 | 69 | 1014.2 |
| 20260505230009 | 66 | 266 | 8.7 | 17.4 | 0.00 | 0.03 | 0.03 | 71 | 1014.3 |
| 20260505224507 | 68 | 252 | 10.4 | 15.6 | 0.00 | 0.03 | 0.03 | 67 | 1014.4 |
| 20260505223010 | 68 | 236 | 9.6 | 15.6 | 0.00 | 0.03 | 0.03 | 67 | 1014.4 |
| 20260505221505 | 68 | 214 | 9.6 | 18.2 | 0.00 | 0.03 | 0.03 | 66 | 1014.7 |
| 20260505220008 | 68 | 284 | 5.2 | 14.8 | 0.00 | 0.03 | 0.03 | 68 | 1014.7 |
| 20260505214540 | 68 | 246 | 8.7 | 13.9 | 0.00 | 0.03 | 0.03 | 67 | 1014.8 |
| 20260505213002 | 68 | 232 | 4.3 | 13.9 | 0.00 | 0.03 | 0.03 | 68 | 1014.9 |
| 20260505211502 | 68 | 290 | 7.8 | 15.6 | 0.00 | 0.03 | 0.03 | 65 | 1015.1 |
| 20260505210003 | 68 | 223 | 5.2 | 12.2 | 0.00 | 0.03 | 0.03 | 65 | 1015.1 |
| 20260505204601 | 68 | 240 | 5.2 | 10.4 | 0.00 | 0.03 | 0.03 | 67 | 1015.1 |
| 20260505203055 | 68 | 226 | 4.3 | 9.6 | 0.00 | 0.03 | 0.03 | 68 | 1015.0 |
| 20260505201602 | 68 | 242 | 4.3 | 12.2 | 0.00 | 0.03 | 0.03 | 67 | 1015.1 |